TAP830 LPPT-LIRF

Flight info

Callsign TAP830
Flight time N/A
Altitude 38000
Route ORVED DCT UREDI N870 PONEN DCT SEROX DCT VILAR DCT KARES DCT BISES DCT BCN/N0439F370 DCT DIPES/N0441F380 N725 TOSNU/N0439F370 DCT LAPIT DCT OSPOK DCT NOLVI DCT ORKUM/N0439F380 DCT ELSAG DCT ALG DCT ROMPO DCT RUXOP DCT BATOX DCT TINTO L5 VALMA
Aircraft A20N/M-SDE2E3FGHIRWXY/LB1

Departure

Time 2026-05-07 05:21
Airport Lisbon Humberto Delgado Airport (LPPT)

Arrival

Time N/A
Airport Rome–Fiumicino Leonardo da Vinci International Airport (LIRF)
Time Latitude Longitude Altitude Speed Heading
2026-05-07 04:59 38.76452 -9.13702 383 ft 0 kts 168°
2026-05-07 05:13 38.76454 -9.13703 383 ft 2 kts 168°
2026-05-07 05:13 38.76469 -9.13707 383 ft 2 kts 168°
2026-05-07 05:13 38.76484 -9.13711 383 ft 2 kts 168°
2026-05-07 05:14 38.76498 -9.13715 383 ft 2 kts 168°
2026-05-07 05:14 38.76512 -9.13718 383 ft 1 kts 193°
2026-05-07 05:14 38.76524 -9.13707 383 ft 1 kts 249°
2026-05-07 05:14 38.76525 -9.13700 383 ft 1 kts 262°
2026-05-07 05:15 38.76525 -9.13696 383 ft 0 kts 259°
2026-05-07 05:17 38.76523 -9.13708 383 ft 2 kts 258°
2026-05-07 05:17 38.76521 -9.13740 383 ft 5 kts 268°
2026-05-07 05:18 38.76523 -9.13795 383 ft 6 kts 275°
2026-05-07 05:18 38.76526 -9.13861 383 ft 7 kts 272°
2026-05-07 05:18 38.76553 -9.13927 383 ft 8 kts 309°
2026-05-07 05:18 38.76569 -9.14008 383 ft 9 kts 268°
2026-05-07 05:19 38.76560 -9.14102 383 ft 10 kts 275°
2026-05-07 05:19 38.76573 -9.14163 383 ft 0 kts 292°
2026-05-07 05:19 38.76574 -9.14167 383 ft 1 kts 292°
2026-05-07 05:19 38.76580 -9.14187 383 ft 4 kts 293°
2026-05-07 05:20 38.76604 -9.14255 383 ft 10 kts 294°
2026-05-07 05:20 38.76643 -9.14344 383 ft 11 kts 320°
2026-05-07 05:20 38.76722 -9.14347 383 ft 9 kts 20°
2026-05-07 05:20 38.76727 -9.14344 383 ft 0 kts 21°
2026-05-07 05:21 38.76779 -9.14318 383 ft 37 kts 21°
2026-05-07 05:21 38.78205 -9.13546 473 ft 163 kts 21°
2026-05-07 05:21 38.79236 -9.12946 1165 ft 162 kts 25°
2026-05-07 05:22 38.80198 -9.12219 1887 ft 166 kts 31°
2026-05-07 05:22 38.81167 -9.11402 2542 ft 172 kts 30°
2026-05-07 05:22 38.82242 -9.10611 2995 ft 188 kts 27°
2026-05-07 05:22 38.83450 -9.09775 3403 ft 210 kts 27°
2026-05-07 05:23 38.84809 -9.08850 3895 ft 230 kts 27°
2026-05-07 05:23 38.86268 -9.07861 4447 ft 248 kts 27°
2026-05-07 05:23 38.87832 -9.06802 5131 ft 261 kts 28°
2026-05-07 05:23 38.89299 -9.05474 6009 ft 265 kts 45°
2026-05-07 05:24 38.90369 -9.03551 6931 ft 268 kts 62°
2026-05-07 05:24 38.91184 -9.01419 7842 ft 271 kts 65°
2026-05-07 05:24 38.91983 -8.99210 8726 ft 276 kts 65°
2026-05-07 05:24 38.92793 -8.96978 9586 ft 280 kts 65°
2026-05-07 05:25 38.93623 -8.94708 10392 ft 286 kts 66°
2026-05-07 05:25 38.94488 -8.92358 10914 ft 302 kts 66°
2026-05-07 05:25 38.95405 -8.89880 11587 ft 312 kts 65°
2026-05-07 05:25 38.96345 -8.87347 12382 ft 318 kts 65°
2026-05-07 05:26 38.97300 -8.84779 13168 ft 323 kts 65°
2026-05-07 05:26 38.98264 -8.82187 13937 ft 327 kts 65°
2026-05-07 05:26 38.99248 -8.79538 14669 ft 333 kts 65°
2026-05-07 05:26 39.00248 -8.76847 15389 ft 338 kts 65°
2026-05-07 05:27 39.01266 -8.74101 16110 ft 343 kts 65°
2026-05-07 05:27 39.02294 -8.71332 16813 ft 348 kts 65°
2026-05-07 05:27 39.03344 -8.68498 17504 ft 353 kts 65°
2026-05-07 05:27 39.04408 -8.65622 18184 ft 358 kts 65°
2026-05-07 05:28 39.05471 -8.62749 18850 ft 362 kts 65°
2026-05-07 05:28 39.06556 -8.59814 19514 ft 366 kts 65°
2026-05-07 05:28 39.07641 -8.56869 20159 ft 370 kts 65°
2026-05-07 05:28 39.08747 -8.53864 20797 ft 373 kts 65°
2026-05-07 05:29 39.09866 -8.50823 21418 ft 377 kts 65°
2026-05-07 05:29 39.10995 -8.47770 22021 ft 381 kts 65°
2026-05-07 05:29 39.12152 -8.44662 22608 ft 385 kts 65°
2026-05-07 05:29 39.13316 -8.41521 23187 ft 388 kts 65°
2026-05-07 05:30 39.14500 -8.38308 23760 ft 392 kts 65°
2026-05-07 05:30 39.15674 -8.35112 24304 ft 395 kts 65°
2026-05-07 05:30 39.16861 -8.31864 24835 ft 399 kts 66°
2026-05-07 05:30 39.18046 -8.28608 25355 ft 402 kts 66°
2026-05-07 05:31 39.19212 -8.25403 25843 ft 405 kts 66°
2026-05-07 05:31 39.20381 -8.22191 26316 ft 408 kts 66°
2026-05-07 05:31 39.21561 -8.18949 26783 ft 411 kts 66°
2026-05-07 05:31 39.22738 -8.15713 27227 ft 414 kts 66°
2026-05-07 05:32 39.23893 -8.12534 27644 ft 417 kts 66°
2026-05-07 05:32 39.25122 -8.09149 28075 ft 420 kts 66°
2026-05-07 05:32 39.26349 -8.05763 28491 ft 423 kts 66°
2026-05-07 05:32 39.27586 -8.02283 28907 ft 426 kts 68°
2026-05-07 05:33 39.28689 -7.98756 29312 ft 428 kts 70°
2026-05-07 05:33 39.29737 -7.95169 29702 ft 431 kts 71°
2026-05-07 05:33 39.30787 -7.91521 30078 ft 434 kts 71°
2026-05-07 05:33 39.31838 -7.87860 30445 ft 437 kts 71°
2026-05-07 05:34 39.32897 -7.84172 30812 ft 439 kts 71°
2026-05-07 05:34 39.33955 -7.80494 31164 ft 442 kts 71°
2026-05-07 05:34 39.35028 -7.76759 31504 ft 444 kts 71°
2026-05-07 05:34 39.36112 -7.72980 31839 ft 447 kts 71°
2026-05-07 05:35 39.37183 -7.69244 32238 ft 447 kts 71°
2026-05-07 05:35 39.38315 -7.65530 32668 ft 446 kts 68°
2026-05-07 05:35 39.39608 -7.61893 33083 ft 446 kts 65°
2026-05-07 05:35 39.40982 -7.58302 33473 ft 445 kts 64°
2026-05-07 05:36 39.42368 -7.54729 33851 ft 445 kts 64°
2026-05-07 05:36 39.43735 -7.51200 34213 ft 444 kts 64°
2026-05-07 05:36 39.45122 -7.47609 34569 ft 443 kts 64°
2026-05-07 05:36 39.46502 -7.44026 34909 ft 443 kts 64°
2026-05-07 05:37 39.47874 -7.40454 35241 ft 442 kts 64°
2026-05-07 05:37 39.49232 -7.36912 35559 ft 442 kts 64°
2026-05-07 05:37 39.50610 -7.33310 35874 ft 441 kts 65°
2026-05-07 05:37 39.51961 -7.29763 36160 ft 441 kts 65°
2026-05-07 05:38 39.53317 -7.26195 36408 ft 441 kts 65°
2026-05-07 05:38 39.54666 -7.22648 36610 ft 442 kts 65°
2026-05-07 05:38 39.56023 -7.19079 36799 ft 444 kts 65°
2026-05-07 05:38 39.57380 -7.15511 36986 ft 445 kts 65°
2026-05-07 05:39 39.58748 -7.11912 37176 ft 446 kts 65°
2026-05-07 05:39 39.60117 -7.08306 37377 ft 447 kts 65°
2026-05-07 05:39 39.61496 -7.04670 37571 ft 447 kts 65°
2026-05-07 05:39 39.62868 -7.01044 37751 ft 448 kts 66°
2026-05-07 05:40 39.64226 -6.97453 37861 ft 449 kts 66°
2026-05-07 05:40 39.66969 -6.90183 37872 ft 449 kts 66°
2026-05-07 05:41 39.69708 -6.82902 37876 ft 449 kts 66°
2026-05-07 05:41 39.72446 -6.75607 37876 ft 449 kts 66°
2026-05-07 05:42 39.75160 -6.68365 37876 ft 449 kts 66°
2026-05-07 05:42 39.77884 -6.61076 37876 ft 449 kts 66°
2026-05-07 05:43 39.80609 -6.53768 37876 ft 449 kts 66°
2026-05-07 05:43 39.83306 -6.46515 37876 ft 449 kts 66°
2026-05-07 05:44 39.86005 -6.39198 37875 ft 448 kts 68°
2026-05-07 05:44 39.88500 -6.31789 37877 ft 448 kts 69°
2026-05-07 05:45 39.90949 -6.24380 37880 ft 448 kts 69°
2026-05-07 05:45 39.93415 -6.16924 37885 ft 448 kts 69°
2026-05-07 05:46 39.95882 -6.09469 37891 ft 448 kts 69°
2026-05-07 05:46 39.98343 -6.02014 37897 ft 448 kts 69°
2026-05-07 05:47 40.00782 -5.94611 37900 ft 448 kts 69°
2026-05-07 05:47 40.03231 -5.87158 37901 ft 448 kts 69°
2026-05-07 05:48 40.05687 -5.79662 37901 ft 448 kts 69°
2026-05-07 05:48 40.08119 -5.72220 37901 ft 448 kts 69°
2026-05-07 05:49 40.10555 -5.64752 37899 ft 448 kts 69°
2026-05-07 05:49 40.13007 -5.57298 37901 ft 448 kts 69°
2026-05-07 05:50 40.15450 -5.49813 37902 ft 448 kts 69°
2026-05-07 05:50 40.17866 -5.42354 37902 ft 448 kts 69°
2026-05-07 05:51 40.20289 -5.34844 37902 ft 448 kts 70°
2026-05-07 05:51 40.22687 -5.27361 37902 ft 448 kts 70°
2026-05-07 05:52 40.25073 -5.19903 37901 ft 448 kts 70°
2026-05-07 05:52 40.27472 -5.12399 37901 ft 448 kts 70°
2026-05-07 05:53 40.29875 -5.04859 37901 ft 448 kts 70°
2026-05-07 05:53 40.32254 -4.97374 37901 ft 448 kts 69°
2026-05-07 05:54 40.34648 -4.89819 37901 ft 448 kts 69°
2026-05-07 05:54 40.37030 -4.82285 37901 ft 448 kts 69°
2026-05-07 05:55 40.39396 -4.74786 37902 ft 448 kts 69°
2026-05-07 05:55 40.41780 -4.67211 37907 ft 448 kts 69°
2026-05-07 05:56 40.44147 -4.59673 37914 ft 448 kts 69°
2026-05-07 05:56 40.46490 -4.52189 37922 ft 448 kts 69°
2026-05-07 05:57 40.48849 -4.44628 37927 ft 448 kts 69°
2026-05-07 05:57 40.51197 -4.37081 37929 ft 447 kts 69°
2026-05-07 05:58 40.53545 -4.29496 37929 ft 447 kts 69°
2026-05-07 05:58 40.55877 -4.21934 37930 ft 447 kts 69°
2026-05-07 05:59 40.58201 -4.14393 37930 ft 447 kts 69°
2026-05-07 05:59 40.60537 -4.06794 37930 ft 447 kts 69°
2026-05-07 06:00 40.62854 -3.99242 37930 ft 447 kts 69°
2026-05-07 06:00 40.65181 -3.91633 37930 ft 447 kts 69°
2026-05-07 06:01 40.67484 -3.84081 37930 ft 447 kts 69°
2026-05-07 06:01 40.69797 -3.76475 37929 ft 447 kts 69°
2026-05-07 06:02 40.72099 -3.68885 37929 ft 447 kts 69°
2026-05-07 06:02 40.74394 -3.61297 37929 ft 447 kts 69°
2026-05-07 06:03 40.76685 -3.53702 37929 ft 447 kts 69°
2026-05-07 06:03 40.78979 -3.46072 37929 ft 447 kts 69°
2026-05-07 06:04 40.81271 -3.38429 37929 ft 447 kts 69°
2026-05-07 06:04 40.83544 -3.30816 37929 ft 447 kts 70°
2026-05-07 06:05 40.85649 -3.23117 37929 ft 446 kts 75°
2026-05-07 06:05 40.87259 -3.15213 37930 ft 446 kts 77°
2026-05-07 06:06 40.88802 -3.07308 37930 ft 446 kts 77°
2026-05-07 06:06 40.90346 -2.99406 37930 ft 446 kts 77°
2026-05-07 06:07 40.91893 -2.91491 37930 ft 445 kts 76°
2026-05-07 06:07 40.93443 -2.83544 37930 ft 445 kts 76°
2026-05-07 06:08 40.94980 -2.75640 37929 ft 445 kts 76°
2026-05-07 06:08 40.96515 -2.67715 37929 ft 445 kts 76°
2026-05-07 06:09 40.98042 -2.59785 37928 ft 447 kts 76°
2026-05-07 06:09 40.99568 -2.51808 37928 ft 450 kts 76°
2026-05-07 06:10 41.01099 -2.43773 37928 ft 452 kts 77°
2026-05-07 06:10 41.02627 -2.35717 37928 ft 455 kts 77°
2026-05-07 06:11 41.04167 -2.27567 37936 ft 458 kts 77°
2026-05-07 06:11 41.05710 -2.19389 37949 ft 459 kts 77°
2026-05-07 06:12 41.07244 -2.11240 37964 ft 452 kts 77°
2026-05-07 06:12 41.08751 -2.03165 37977 ft 454 kts 77°
2026-05-07 06:13 41.10257 -1.95036 37981 ft 456 kts 77°
2026-05-07 06:13 41.11801 -1.86838 37983 ft 459 kts 77°
2026-05-07 06:14 41.13323 -1.78667 37985 ft 461 kts 77°
2026-05-07 06:14 41.14845 -1.70394 37986 ft 461 kts 77°
2026-05-07 06:15 41.16361 -1.62095 37989 ft 461 kts 77°
2026-05-07 06:15 41.17853 -1.53882 37995 ft 461 kts 77°
2026-05-07 06:16 41.19350 -1.45617 38002 ft 461 kts 77°
2026-05-07 06:16 41.20852 -1.37316 38008 ft 461 kts 77°
2026-05-07 06:17 41.22345 -1.29025 38009 ft 461 kts 78°
2026-05-07 06:17 41.23819 -1.20763 38010 ft 461 kts 78°
2026-05-07 06:18 41.25294 -1.12462 38011 ft 460 kts 77°
2026-05-07 06:18 41.26749 -1.04252 38011 ft 459 kts 77°
2026-05-07 06:19 41.28209 -0.95983 38012 ft 457 kts 77°
2026-05-07 06:19 41.29642 -0.87839 38011 ft 456 kts 76°
2026-05-07 06:20 41.31087 -0.79595 38011 ft 456 kts 76°
2026-05-07 06:20 41.32512 -0.71414 38011 ft 456 kts 77°
2026-05-07 06:21 41.33931 -0.63226 38011 ft 456 kts 77°
2026-05-07 06:21 41.35062 -0.54901 38011 ft 456 kts 84°
2026-05-07 06:22 41.35383 -0.46544 38012 ft 456 kts 91°
2026-05-07 06:22 41.35257 -0.33883 38006 ft 455 kts 92°
2026-05-07 06:23 41.35176 -0.25513 38000 ft 455 kts 92°
2026-05-07 06:23 41.35098 -0.17057 37992 ft 456 kts 92°
2026-05-07 06:24 41.35017 -0.08679 37988 ft 455 kts 92°
2026-05-07 06:24 41.34931 -0.00254 37986 ft 455 kts 92°
2026-05-07 06:25 41.34838 0.08149 37987 ft 455 kts 92°
2026-05-07 06:25 41.34738 0.16509 37986 ft 455 kts 92°
2026-05-07 06:26 41.34633 0.24953 37986 ft 455 kts 92°
2026-05-07 06:26 41.34522 0.33312 37986 ft 455 kts 92°
2026-05-07 06:27 41.34403 0.41753 37987 ft 455 kts 92°
2026-05-07 06:27 41.34278 0.50116 37986 ft 455 kts 92°
2026-05-07 06:28 41.34146 0.58502 37987 ft 455 kts 92°
2026-05-07 06:28 41.34011 0.66919 37985 ft 455 kts 92°
2026-05-07 06:29 41.33870 0.75341 37985 ft 455 kts 92°
2026-05-07 06:29 41.33720 0.83755 37986 ft 455 kts 92°
2026-05-07 06:30 41.33565 0.92116 37986 ft 455 kts 92°
2026-05-07 06:30 41.33402 1.00502 37985 ft 456 kts 92°
2026-05-07 06:31 41.33229 1.08957 37985 ft 459 kts 91°
2026-05-07 06:31 41.33052 1.17427 37985 ft 461 kts 91°
2026-05-07 06:32 41.32872 1.25958 37986 ft 462 kts 90°
2026-05-07 06:32 41.32690 1.34481 37986 ft 463 kts 91°
2026-05-07 06:33 41.32496 1.42995 37986 ft 463 kts 90°
2026-05-07 06:33 41.32294 1.51562 37987 ft 463 kts 90°
2026-05-07 06:34 41.32085 1.60129 37992 ft 462 kts 91°
2026-05-07 06:34 41.31872 1.68620 37999 ft 463 kts 91°
2026-05-07 06:35 41.31650 1.77172 38006 ft 463 kts 91°
2026-05-07 06:35 41.31424 1.85691 38009 ft 462 kts 91°
2026-05-07 06:36 41.31189 1.94260 38011 ft 462 kts 91°
2026-05-07 06:36 41.30948 2.02756 38011 ft 463 kts 91°
2026-05-07 06:37 41.30496 2.11288 37738 ft 463 kts 97°
2026-05-07 06:37 41.29974 2.15519 37488 ft 463 kts 102°
2026-05-07 06:37 41.29312 2.19647 37243 ft 463 kts 103°
2026-05-07 06:38 41.28609 2.23841 37044 ft 462 kts 103°
2026-05-07 06:38 41.27913 2.27965 37020 ft 462 kts 103°
2026-05-07 06:38 41.26517 2.36282 37013 ft 463 kts 103°
2026-05-07 06:39 41.25122 2.44626 37012 ft 463 kts 102°
2026-05-07 06:39 41.23724 2.52982 37012 ft 463 kts 102°
2026-05-07 06:40 41.22328 2.61291 37012 ft 463 kts 102°
2026-05-07 06:40 41.20900 2.69761 37010 ft 462 kts 103°
2026-05-07 06:41 41.19452 2.78327 37011 ft 462 kts 103°
2026-05-07 06:41 41.18009 2.86797 37011 ft 462 kts 103°
2026-05-07 06:42 41.16527 2.95428 37011 ft 463 kts 103°
2026-05-07 06:42 41.15035 3.04069 37011 ft 464 kts 102°
2026-05-07 06:43 41.13541 3.12705 37012 ft 464 kts 101°
2026-05-07 06:43 41.12043 3.21349 37011 ft 464 kts 101°
2026-05-07 06:44 41.10564 3.29840 37012 ft 463 kts 101°
2026-05-07 06:44 41.09101 3.38173 37013 ft 461 kts 101°
2026-05-07 06:45 41.07631 3.46509 37013 ft 459 kts 101°
2026-05-07 06:45 41.06179 3.54701 37011 ft 457 kts 101°
2026-05-07 06:46 41.04720 3.62925 37008 ft 456 kts 101°
2026-05-07 06:46 41.03257 3.71131 37001 ft 454 kts 102°
2026-05-07 06:47 41.01793 3.79296 36996 ft 452 kts 102°
2026-05-07 06:47 41.00323 3.87466 36991 ft 450 kts 102°
2026-05-07 06:48 40.98868 3.95517 36988 ft 448 kts 102°
2026-05-07 06:48 40.97396 4.03602 36988 ft 447 kts 102°
2026-05-07 06:49 40.95908 4.11748 36987 ft 447 kts 102°
2026-05-07 06:49 40.94364 4.20143 36986 ft 446 kts 102°
2026-05-07 06:50 40.92794 4.28656 36988 ft 447 kts 102°
2026-05-07 06:50 40.91235 4.37055 36987 ft 446 kts 102°
2026-05-07 06:51 40.89669 4.45450 36984 ft 446 kts 102°
2026-05-07 06:51 40.88086 4.53820 36985 ft 446 kts 102°
2026-05-07 06:52 40.86573 4.61883 36985 ft 446 kts 102°
2026-05-07 06:52 40.85321 4.70318 36987 ft 445 kts 96°
2026-05-07 06:53 40.84518 4.79005 36985 ft 445 kts 95°
2026-05-07 06:53 40.83731 4.87592 36986 ft 446 kts 95°
2026-05-07 06:54 40.82953 4.95907 36986 ft 448 kts 94°
2026-05-07 06:54 40.82169 5.04205 36987 ft 448 kts 93°
2026-05-07 06:55 40.81395 5.12396 36987 ft 448 kts 93°
2026-05-07 06:55 40.80596 5.20797 36986 ft 448 kts 93°
2026-05-07 06:56 40.79798 5.29086 36986 ft 448 kts 93°
2026-05-07 06:56 40.78970 5.37601 36986 ft 448 kts 93°
2026-05-07 06:57 40.78159 5.45879 36986 ft 448 kts 93°
2026-05-07 06:57 40.77340 5.54167 36986 ft 448 kts 93°
2026-05-07 06:58 40.76491 5.62710 36986 ft 448 kts 93°
2026-05-07 06:58 40.75637 5.71247 36986 ft 448 kts 94°
2026-05-07 06:59 40.74785 5.79698 36987 ft 448 kts 94°
2026-05-07 06:59 40.73929 5.88119 36987 ft 448 kts 94°
2026-05-07 07:00 40.73078 5.96408 36987 ft 448 kts 94°
2026-05-07 07:00 40.72225 6.04624 36987 ft 448 kts 94°
2026-05-07 07:01 40.71364 6.12868 36987 ft 448 kts 94°
2026-05-07 07:01 40.70504 6.21060 36986 ft 448 kts 94°
2026-05-07 07:02 40.69628 6.29343 36986 ft 448 kts 94°
2026-05-07 07:02 40.68754 6.37558 36986 ft 448 kts 94°
2026-05-07 07:03 40.67876 6.45751 36986 ft 448 kts 94°
2026-05-07 07:03 40.66991 6.53955 36986 ft 448 kts 94°
2026-05-07 07:04 40.66103 6.62125 36986 ft 448 kts 94°
2026-05-07 07:04 40.65434 6.68259 36986 ft 448 kts 94°